Voltar ao catálogo

STARLINK-38087

AtivoComunicaçõesSSO
NORAD 69743·PAYLOAD·🇺🇸 United States

Lançado Jul 2, 2026 de Vandenberg Space Force Base

Loading…

Próximas Passagens (próximas 24 horas)

TLE

AtualizadoSource: CelesTrak SupGP

Época: Sep 14, 2026, 22:49 UTC

1 69743C 26150E   26257.95118056  .00087997  00000+0  27320-2 0  2572
2 69743  97.2847  97.0000 0001706  92.2853  81.3666 15.33390229    15

Acompanhe STARLINK-38087 em tempo real com AllMySat

Download on the App Store